Search flights

Saniat R'Mel Airport, Tetouan (GMTN)

Meteorología aeropuerto y NOTAMs

METAR for:GMTN (Tetouan/Sania Ramel Arpt, TA, MA)
Text:GMTN 180200Z 22014KT CAVOK 20/15 Q1011 NOSIG
Conditions at:0200 UTC 18 Jun 2024
Temperature: 20.0°C ( 68°F)
Dewpoint: 15.0°C ( 59°F) [RH = 73%]
Pressure (altimeter):29.85 inches Hg (1011.0 mb)
Winds:from the SW (220 degrees) at 16 MPH (14 knots; 7.2 m/s)
Visibility:6 or more sm (10+ km)
Ceiling:ceiling and visibility are OK
Clouds:unknown

Salidas y llegadas actuales

En este momento no hay salidas ni llegadas a este aeropuerto

Historial de salidas (últimos 12 meses)

Nº vuelo. Destino Aeronave Fecha
VFRFNX-MA/ALG-02 GMTA Carenado C... 2024-05-15 06:38:11

Historial de llegadas (últimos 12 meses)

Nº vuelo. Origen Aeronave Fecha
VFRFNX-MA/ALG-01 GMTT Carenado C... 2024-05-15 06:16:35

Información de pista (Elevación del aeropuerto: 16ft)

Pista 06 Longitud 7,554ft Anchura 147ft Elevación 10ft Superficie Asphalt Rumbo 55
Pista 24 Longitud 7,554ft Anchura 147ft Elevación 10ft Superficie Asphalt Rumbo 235

Frecuencias del aeropuerto

Tipo ATIS Frecuencia 124.800 Mhz
Tipo Tower Frecuencia 119.000 Mhz
Tipo Tower Frecuencia 131.250 Mhz

Radioayudas del aeropuerto

Tipo VOR-DME Identif. TTN Frecuencia 117300 Khz
Tipo NDB Identif. TUN Frecuencia 388 Khz